Location: Buisson
(44.2787°N, 4.9969°E)
Time: 02:38:10
(UTC+00:00)

ARIANE 5 R/B - Pass Details

Date: 18 April 2021
Orbit: 749 x 794 km, 98.7° (Epoch: 08 May)

Event Time Altitude Azimuth Distance (km) Brightness Sun altitude
Rises 03:10:33 0° 11° (N) 3,306 6.5 -17.1°
Reaches altitude 10° 03:12:54 10° 8° (N) 2,373 5.6 -16.7°
Maximum altitude 03:18:05 64° 288° (WNW) 876 2.6 -15.9°
Enters shadow 03:21:34 21° 212° (SSW) 1,722 3.8 -15.4°
